Voltar ao catálogo

STARLINK-31804

AtivoComunicaçõesVLEO
NORAD 59641·PAYLOAD·🇺🇸 United States

Lançado May 3, 2024 de Cape Canaveral Space Force Station

Loading…

Próximas Passagens (próximas 24 horas)

TLE

AtualizadoSource: CelesTrak SupGP

Época: Sep 14, 2026, 21:15 UTC

1 59641C 24082L   26257.88590278 -.00043122  00000+0 -15621-2 0  2577
2 59641  43.0008 151.0487 0001389 266.0816 334.1803 15.27596300    19

Acompanhe STARLINK-31804 em tempo real com AllMySat

Download on the App Store